Flag for Germany Weather past 2 weeks in Hamburg, Hamburg, Germany

36 °F

Light rain. Passing clouds.

Feels Like: 27 °F
Forecast: 36 / 42 °F
Wind: 13 mph from South

Location: Hamburg-Fuhlsbuettel

Current Time: Nov 25, 2015 at 12:17:15 AM

Latest Report: Nov 24, 2015 at 11:20 PM

Visibility: N/A

Pressure: 29.68 "Hg

Humidity: 93%

Dew point: 34 °F

Location of HamburgLocation

Historic Weather in Hamburg — Graph


Hamburg temperature yesterday

Maximum temperature yesterday: 41 °F (at 12:50 PM)
Minimum temperature yesterday: 36 °F (at 7:20 PM)
Average temperature yesterday: 38 °F

Past Weeks' High & Low Weather Summary

High61 °F (Nov 10, 11:50 AM)100% (Nov 10, 2:50 AM)30.21 "Hg (Nov 10, 2:50 AM)
Low30 °F (Nov 22, 2:20 AM)58% (Nov 13, 3:50 PM)29.30 "Hg (Nov 21, 1:20 AM)
Average47 °F88%29.79 "Hg
* Reported Nov 9 10:20 PM — Nov 24 10:20 PM, Hamburg, Weather by CustomWeather, © 2015

Note: Actual official high and low records may vary slightly from our data, if they occured in-between our weather recording intervals... More about our weather records


Hamburg weather history for previous 24 hours

Time TempWeatherWind HumidityBarometerVisibility
10:20 PM
Tue, Nov 24
36 °FLight rain. Passing clouds.15 mph93%29.71 "HgN/A
9:50 PM36 °FLight rain. Passing clouds.15 mph93%29.71 "HgN/A
9:20 PM36 °FLight rain. Passing clouds.14 mph93%29.74 "HgN/A
8:50 PM36 °FLight rain. Partly cloudy.15 mph93%29.74 "Hg4 mi
8:20 PM36 °FLight rain. Mostly cloudy.17 mph93%29.74 "Hg5 mi
7:50 PM36 °FLight rain. Mostly cloudy.17 mph93%29.77 "Hg6 mi
7:20 PM36 °FLight rain. Mostly cloudy.17 mph93%29.77 "HgN/A
6:50 PM37 °FLight rain. Mostly cloudy.20 mph87%29.77 "HgN/A
6:20 PM37 °FLight rain. Partly cloudy.17 mph87%29.77 "HgN/A
5:50 PM37 °FLight rain. Passing clouds.17 mph93%29.80 "HgN/A
5:20 PM37 °FLight rain. Partly cloudy.17 mph87%29.80 "HgN/A
4:50 PM37 °FLight rain. Partly cloudy.17 mph87%29.80 "HgN/A
4:20 PM37 °FLight rain. Partly cloudy.21 mph87%29.83 "HgN/A
3:50 PM39 °FLight rain. Partly sunny.17 mph81%29.83 "HgN/A
3:20 PM39 °FLight rain. Partly sunny.21 mph75%29.83 "HgN/A
2:50 PM41 °FLight rain. Broken clouds.20 mph66%29.83 "HgN/A
2:20 PM41 °FLight rain. Broken clouds.22 mph66%29.86 "HgN/A
1:50 PM41 °FLight rain. Broken clouds.22 mph66%29.89 "HgN/A
1:20 PM41 °FBroken clouds.22 mph66%29.89 "HgN/A
12:50 PM41 °FBroken clouds.21 mph66%29.92 "HgN/A
12:20 PM39 °FLight rain. Partly sunny.20 mph70%29.92 "HgN/A
11:50 AM39 °FLight rain. Partly sunny.18 mph75%29.95 "HgN/A
11:20 AM39 °FLight rain. Partly sunny.20 mph75%29.95 "HgN/A
10:50 AM39 °FLight rain. Broken clouds.21 mph75%29.98 "HgN/A
10:20 AM39 °FLight rain. Partly sunny.20 mph70%29.98 "HgN/A
9:50 AM39 °FPartly sunny.21 mph70%29.98 "HgN/A
9:20 AM39 °FPartly sunny.15 mph70%29.98 "HgN/A
8:50 AM39 °FPartly sunny.16 mph70%30.01 "HgN/A
7:50 AM39 °FClear.20 mph70%30.01 "Hg10 mi
7:20 AM37 °FClear.18 mph81%30.01 "Hg10 mi
6:50 AM37 °FClear.18 mph81%30.01 "Hg10 mi
6:20 AM37 °FClear.17 mph81%30.04 "Hg10 mi
5:50 AM39 °FClear.15 mph75%30.04 "Hg10 mi
5:20 AM37 °FClear.15 mph81%30.04 "Hg10 mi
4:50 AM37 °FClear.16 mph87%30.04 "Hg10 mi
3:50 AM39 °FClear.16 mph81%30.07 "Hg10 mi
3:20 AM37 °FClear.15 mph87%30.07 "Hg10 mi
2:50 AM37 °FClear.14 mph87%30.07 "Hg10 mi
2:20 AM37 °FClear.14 mph87%30.09 "Hg10 mi
1:50 AM37 °FClear.14 mph87%30.09 "Hg10 mi
1:20 AM37 °FClear.14 mph87%30.09 "Hg10 mi
12:50 AM37 °FClear.13 mph87%30.09 "Hg10 mi
12:20 AM37 °FClear.12 mph87%30.12 "Hg10 mi
Weather by CustomWeather, © 2015

See weather overviewHow to use our weather pages